sat.trackr.live / text

‹ back to catalog

STARLINK-4358

NORAD 53225 · 2022-084AN

PAYLOAD ACTIVE UNKNOWN

§ Identity

Operator
Country
US
Launch date
2022-07-22
Launch site
AFWTR
Launch vehicle
Mass (kg)
RCS (m²)

Purposes: comms

External: N2YO · Heavens-Above · Gunter

§ Orbital elements

Epoch: 2026-09-19T10:34:19.894656Z

Period
93.91 min
Inclination
97.2847°
Eccentricity
0.0001520
Mean motion
15.33438899 rev/d
Perigee alt
464.5 km
Apogee alt
466.6 km
Semi-major
6,843.7 km
B*
2.1441e-5
RAAN
318.2023°
Arg perigee
90.0737°
Mean anomaly
270.0680°
Rev number
22,859

§ Raw data

STARLINK-43581 53225U 22084AN  26262.44050804  .00000617  00000+0  21441-4 0  99952 53225  97.2847 318.2023 0001520  90.0737 270.0680 15.33438899228591

JSON: /api/v1/satellites/53225 · /tle

For live sub-satellite position, see the globe view (requires WebGL).

§ Visibility from observer

Set your observer location to see the next 7 days of passes ≥ 10°. The values pass through the URL so the page stays shareable.

No JS? Fill the form by hand. The geolocation button needs JavaScript.